ASTRA 3B

Last updated on Thu Nov 21 2024 00:02:41 GMT+0000 (Coordinated Universal Time)

1 36581U 10021A 24325.20674208 .00000138 00000+0 00000+0 0 9992 2 36581 0.0094 64.9370 0002498 162.8435 289.8852 1.00268988 53113
UTC large
Height (km)
Speed (km/s)
/
Latitude / Longitude
Inclination (degrees)
Orbital Period (minutes)
Azimuth
Elevation
Range (km)
Doppler Factor

Next 0 passes for location: London (51.5072 / 0.1276)

Sorry there are no passes over London.